Simultaneous Nadir Overpasses (SNOs) Predictions

Prediction of SNOs between FY3D and AQUA Satellite Orbit:

Table of predicted SNOs for the next 14.0 days since TLE Epoch: 7/1/2023
Index Date (FY3D) Time (FY3D) Lat,Lon (FY3D) SZA (FY3D ) Date (AQUA) Time (AQUA) Lat,Lon (AQUA) SZA (AQUA ) Distance(km) Time Diff (sec)
1 07/02/2023 08:15:46 -78.57,-142.20 123.83 07/02/2023 08:16:15 -78.58,-142.31 123.82 2.43 29
2 07/02/2023 09:06:22 78.18, 27.43 55.65 07/02/2023 09:05:31 78.19, 27.33 55.68 2.46 51
3 07/04/2023 22:01:26 78.63,-168.95 56.47 07/04/2023 22:01:49 78.63,-168.95 56.47 0.12 23
4 07/04/2023 22:51:59 -78.17, 1.13 124.16 07/04/2023 22:51:02 -78.17, 1.07 124.13 1.44 57
5 07/07/2023 11:47:02 -78.59, 164.98 123.34 07/07/2023 11:47:19 -78.59, 164.92 123.33 1.62 17
6 07/07/2023 12:37:41 78.31, -26.04 56.30 07/07/2023 12:36:37 78.30, -25.92 56.30 3.03 64
7 07/10/2023 01:32:38 78.54, 138.90 56.90 07/10/2023 01:32:48 78.54, 138.84 56.91 1.44 10
8 07/10/2023 02:23:12 -78.11, -51.28 123.67 07/10/2023 02:22:02 -78.12, -51.35 123.65 1.51 70
9 07/12/2023 15:18:14 -78.50, 112.77 122.81 07/12/2023 15:18:17 -78.51, 112.67 122.80 2.42 3



Historial Predications of SNOs between FY3D and AQUA
